Theta_e
327 326 322 329 334 340 343 344 347 350 346 347 348 349 347 347 347 346 341 338 334 333 334 334 336 338 336 335 335 336 335 332 332
326 327 325 327 333 343 345 348 351 352 349 348 348 350 350 348 345 341 336 333 332 332 333 338 339 337 335 335 335 335 330 328 326
325 328 331 330 338 343 347 350 351 352 351 349 349 349 349 346 342 338 332 332 333 334 335 339 338 336 335 334 335 333 328 326 325
328 330 332 335 340 343 346 350 351 351 350 348 349 350 346 344 339 336 332 332 334 334 338 337 336 336 336 335 335 332 327 327 326
331 334 339 340 341 343 347 348 350 350 350 349 351 349 345 343 337 333 330 332 335 339 337 337 336 336 336 335 334 332 328 326 326
328 333 328 327 339 341 346 348 349 349 349 350 351 347 345 342 332 330 333 338 340 340 340 339 338 336 334 334 333 329 329 326 325
327 330 332 331 337 341 345 347 348 348 348 351 349 345 340 334 335 339 340 340 340 340 339 337 333 330 329 326 326 327 326 325 323
327 327 332 336 338 340 344 345 347 349 348 350 346 340 332 338 340 340 339 338 339 338 336 331 326 320 317 318 321 324 321 319 315
326 327 333 337 340 342 343 345 345 341 339 338 340 336 336 341 339 338 339 337 335 335 331 326 318 313 311 310 313 317 319 313 308
326 324 329 335 339 340 343 341 341 339 339 340 339 340 340 339 338 338 336 333 331 329 323 321 314 311 309 308 309 314 314 313 304
326 325 325 327 327 341 341 340 340 342 340 339 339 338 338 338 337 336 333 328 324 322 320 315 310 308 307 306 308 312 311 310 301
327 328 323 330 333 343 341 341 341 337 337 338 338 338 337 334 336 332 326 321 320 319 319 310 308 307 305 304 304 310 310 304 301
328 336 340 339 343 343 340 338 340 337 336 336 333 333 330 333 333 325 320 320 318 316 313 310 309 307 305 306 300 309 309 304 301
337 338 342 343 341 339 336 334 337 335 333 329 329 332 330 327 322 320 320 315 311 313 313 312 309 307 304 302 302 301 308 308 301
336 336 336 336 333 332 331 331 333 330 327 330 329 325 323 319 318 318 311 308 306 306 304 302 301 299 299 301 300 304 305 308 308
334 334 333 333 331 330 328 328 327 327 327 323 321 318 315 315 314 309 306 305 303 303 302 300 299 298 297 297 299 298 304 305 307
331 332 330 330 329 327 324 325 327 325 321 320 318 314 313 313 313 310 305 304 304 303 301 299 299 298 297 296 297 297 297 297 297
329 328 328 327 325 323 320 321 320 319 318 317 315 313 312 311 311 308 306 303 303 303 302 302 300 298 298 297 298 299 300 298 297
327 325 323 321 320 320 317 317 317 317 316 315 311 310 310 309 309 308 307 305 303 305 304 303 301 300 300 301 301 300 299 298 297
324 324 322 321 319 316 316 314 314 313 314 313 307 305 307 306 305 306 305 304 302 301 303 303 301 299 299 299 300 299 297 296 296
Wind_Speed
16 11 7 7 7 9 12 13 12 10 8 7 8 8 7 6 6 4 4 5 4 4 3 3 2 3 3 4 4 4 4 3 3
15 15 12 10 7 8 10 11 12 12 11 8 8 8 6 6 6 7 6 7 5 4 3 3 3 3 3 3 4 3 4 3 5
9 3 5 2 7 10 8 10 9 10 11 12 9 8 7 6 6 6 6 6 6 3 2 2 3 2 3 4 3 3 4 4 4
14 16 12 14 11 7 10 10 11 11 10 10 9 8 7 7 6 7 6 4 4 3 2 2 1 0 2 3 4 2 3 3 5
10 11 8 8 7 7 10 12 11 11 10 11 10 9 8 7 6 5 6 5 4 4 3 1 1 2 3 4 4 2 4 5 5
10 10 10 12 5 9 12 13 13 12 12 11 10 10 9 7 7 6 6 6 5 4 3 4 5 5 6 7 6 6 5 5 6
7 9 9 14 8 9 8 10 11 10 11 11 11 10 8 7 6 7 7 6 6 5 4 6 6 6 6 8 7 7 6 6 7
7 9 13 14 13 11 12 11 11 12 8 8 9 10 9 8 8 7 5 5 5 5 6 7 6 8 8 8 10 8 7 6 7
14 12 15 13 14 15 13 12 3 9 13 16 6 4 6 7 6 6 6 6 6 6 7 9 9 8 8 8 7 15 15 11 7
19 17 12 13 13 10 7 11 12 20 13 10 12 6 6 5 3 4 6 7 6 6 7 9 8 6 7 8 7 16 15 15 6
18 15 11 7 6 7 10 15 14 15 12 11 11 11 13 10 6 6 7 6 6 7 7 8 6 5 5 6 8 14 13 12 6
17 18 6 8 6 7 12 13 12 9 10 12 12 8 6 6 7 8 6 6 6 5 9 7 4 4 6 6 5 11 10 7 4
7 7 9 12 11 11 15 10 9 12 12 11 9 7 8 6 6 7 7 6 6 4 9 8 6 6 5 6 3 7 9 6 2
8 7 10 14 13 10 11 12 11 11 10 8 8 9 8 7 6 7 7 6 4 6 7 6 5 6 3 3 2 5 8 6 2
9 13 10 12 10 8 7 7 10 11 10 7 7 9 10 7 7 6 7 9 5 6 7 7 5 5 3 2 3 5 5 3 5
3 10 9 10 11 11 6 7 6 11 7 10 10 8 7 6 8 7 7 9 6 5 5 5 4 4 3 2 3 4 5 7 9
5 7 9 8 10 9 7 7 7 7 8 8 9 8 7 6 8 7 6 5 5 5 5 4 4 4 3 3 4 4 3 2 5
6 8 6 6 7 7 7 8 7 6 7 9 8 8 7 6 6 7 6 4 4 5 4 5 6 5 4 4 4 4 4 2 2
11 11 8 7 6 9 7 8 7 6 6 8 8 7 5 4 4 4 4 4 2 2 4 8 9 6 7 5 8 7 7 7 8
12 10 9 9 9 8 8 8 7 5 6 7 7 7 6 4 4 4 4 3 4 4 4 4 7 8 10 11 11 9 10 10 9
Wind_Direction
198 191 197 206 222 186 176 176 161 152 169 159 160 160 180 160 154 150 152 150 155 152 161 177 179 103 61 38 24 31 23 19 4
201 204 199 197 211 171 170 161 159 158 160 164 159 166 162 165 146 152 154 157 165 175 176 175 151 119 81 39 35 48 36 26 13
212 157 116 195 231 166 160 148 145 156 163 162 162 157 152 158 159 157 157 159 170 153 144 117 134 98 68 42 20 42 40 28 4
179 189 178 160 186 174 150 146 158 160 161 153 159 153 147 147 169 166 167 142 129 149 125 136 142 283 34 33 6 48 46 25 13
156 91 127 145 149 161 160 159 169 163 169 164 164 157 154 162 165 141 137 135 153 148 137 113 58 34 35 28 356 54 40 13 2
128 124 167 197 136 175 177 178 174 173 177 171 163 156 155 144 142 138 143 144 143 129 119 70 44 43 32 20 25 41 31 29 2
146 152 165 205 174 184 198 187 181 180 185 168 160 150 138 132 139 144 142 141 137 130 115 89 76 53 50 45 25 16 17 30 23
169 172 178 179 172 182 192 186 185 193 171 159 150 140 129 140 134 126 124 129 110 101 88 77 69 67 50 43 43 26 30 33 38
190 203 194 186 190 180 186 181 121 52 57 65 35 60 105 106 114 134 130 103 94 100 89 75 72 53 64 60 51 30 33 38 31
198 206 200 185 178 183 145 107 116 103 135 130 134 160 98 78 96 121 102 100 103 98 87 97 86 71 70 53 37 34 31 40 33
204 213 203 140 145 111 113 120 133 153 161 129 126 146 148 148 165 124 119 116 111 98 97 101 96 86 62 61 41 34 39 47 34
218 219 104 120 132 125 122 131 146 139 126 135 153 141 142 126 131 133 124 108 106 102 109 109 111 103 84 63 27 41 44 45 32
222 161 131 143 141 146 126 129 133 136 140 149 142 148 137 124 135 124 112 121 116 91 117 125 116 98 89 80 40 29 41 39 15
53 59 112 122 136 150 120 133 140 143 144 143 138 133 121 124 107 117 123 104 100 113 113 115 108 108 99 84 44 360 16 25 10
68 89 84 98 109 124 123 108 127 138 139 129 123 122 119 118 128 124 111 109 98 105 115 114 121 122 109 18 352 321 313 25 59
114 99 96 107 127 126 90 101 125 131 123 131 123 115 119 124 114 116 123 124 126 116 125 134 141 126 139 229 272 277 339 16 27
183 108 113 115 114 121 122 98 99 113 130 125 118 120 131 133 133 132 131 128 137 132 139 142 151 165 196 245 271 270 275 9 19
143 119 112 99 113 116 94 98 106 125 134 131 131 135 141 136 139 145 138 121 153 161 194 172 174 209 195 204 255 254 213 191 293
156 126 107 104 125 122 125 114 125 137 143 134 132 124 133 142 142 142 132 136 142 11 237 239 241 235 200 238 245 267 246 244 245
123 123 129 151 142 132 125 125 127 155 154 137 131 135 148 135 132 135 144 156 172 192 289 257 248 259 258 256 252 258 254 257 264